Fairfield, IL

9:18 PM CST on December 14, 2019 (GMT -0600)
Fairfield Municipal

Weather History for KFWC - October, 2019

Change the Weather History Date:

Thursday, October 3, 2019

  Actual Average (KEVV) Record (KEVV)
Temperature  
Mean Temperature 68 °F -  
Max Temperature 80 °F 75 °F 91 °F (1900)
Min Temperature 57 °F 48 °F 31 °F (1974)
Cooling Degree Days 3    
Growing Degree Days 18 (Base 50)    
Moisture  
Dew Point 62 °F    
Average Humidity 77    
Maximum Humidity 100    
Minimum Humidity 50    
Precipitation  
Precipitation 0.00 in - - ()
Sea Level Pressure  
Sea Level Pressure 30.06 in    
Wind  
Wind Speed 1 mph ()    
Max Wind Speed 8 mph    
Max Gust Speed -    
Visibility 10.0 miles    
Events      
Averages and records for this station are not official NWS values.
T = Trace of Precipitation, MM = Missing Value Source: Averaged Metar Reports

Daily Weather History Graph

Daily Weather History Graph

Search for Another Location

Airport or City:

Astronomy

Oct. 03, 2019 Rise Set
Actual Time 6:51 AM CDT 6:33 PM CDT
Civil Twilight 6:24 AM CDT 7:00 PM CDT
Nautical Twilight 5:53 AM CDT 7:30 PM CDT
Astronomical Twilight 5:23 AM CDT 8:01 PM CDT
Moon 12:18 PM CDT (10/3) 10:16 PM CDT (10/3)
Length of Visible Light 12h 35m
Length of Day
11h 42m
Waxing Crescent, 30% of the Moon is Illuminated
Oct 3
Waxing Crescent
Oct 5
First Quarter
Oct 13
Full
Oct 21
Last Quarter
Oct 27
New

Hourly Weather History & Observations

Time (CDT) Temp. Dew Point Humidity Pressure Visibility Wind Dir Wind Speed Gust Speed Precip Events Conditions
12:15 AM 67.6 °F 67.6 °F 100% 29.94 in 10.0 mi Calm Calm - N/A   Clear
12:35 AM 68.0 °F 67.1 °F 97% 29.94 in 10.0 mi Calm Calm - N/A   Clear
12:55 AM 66.6 °F 66.6 °F 100% 29.94 in 10.0 mi Calm Calm - N/A   Clear
1:15 AM 67.1 °F 66.6 °F 98% 29.94 in 10.0 mi Calm Calm - N/A   Clear
1:35 AM 68.7 °F 65.1 °F 88% 29.94 in 10.0 mi Calm Calm - N/A   Clear
1:55 AM 66.2 °F 66.2 °F 100% 29.94 in 10.0 mi Calm Calm - N/A   Clear
2:15 AM 65.3 °F 65.3 °F 100% 29.94 in 10.0 mi Calm Calm - N/A   Clear
2:35 AM 65.3 °F 65.3 °F 100% 29.94 in 10.0 mi Calm Calm - N/A   Clear
2:55 AM 65.3 °F 65.3 °F 100% 29.95 in 10.0 mi Calm Calm - N/A   Clear
3:15 AM 65.1 °F 65.1 °F 100% 29.95 in 10.0 mi Calm Calm - N/A   Clear
3:35 AM 70.7 °F 64.4 °F 80% 29.95 in 10.0 mi SW 3.5 mph - N/A   Clear
3:55 AM 70.0 °F 64.0 °F 81% 29.96 in 10.0 mi Calm Calm - N/A   Clear
4:15 AM 69.8 °F 63.5 °F 80% 29.96 in 10.0 mi Calm Calm - N/A   Clear
4:35 AM 69.1 °F 63.7 °F 83% 29.97 in 10.0 mi Calm Calm - N/A   Clear
4:55 AM 69.3 °F 63.5 °F 82% 29.97 in 10.0 mi Calm Calm - N/A   Clear
5:15 AM 68.0 °F 63.5 °F 85% 29.97 in 10.0 mi Calm Calm - N/A   Clear
5:35 AM 66.9 °F 63.5 °F 89% 29.98 in 10.0 mi Calm Calm - N/A   Clear
5:55 AM 64.8 °F 64.4 °F 99% 29.98 in 10.0 mi Calm Calm - N/A   Clear
6:15 AM 64.0 °F 63.9 °F 99% 29.99 in 10.0 mi Calm Calm - N/A   Clear
6:35 AM 63.7 °F 63.7 °F 100% 29.99 in 10.0 mi Calm Calm - N/A   Clear
6:55 AM 63.5 °F 63.5 °F 100% 30.00 in 10.0 mi Calm Calm - N/A   Clear
7:15 AM 64.6 °F 64.6 °F 100% 30.00 in 10.0 mi Calm Calm - N/A   Clear
7:35 AM 68.7 °F 64.8 °F 87% 30.01 in 10.0 mi Calm Calm - N/A   Clear
7:55 AM 71.2 °F 65.5 °F 82% 30.02 in 10.0 mi Calm Calm - N/A   Clear
8:15 AM 73.0 °F 65.3 °F 77% 30.03 in 10.0 mi Calm Calm - N/A   Clear
8:35 AM 74.5 °F 65.5 °F 73% 30.02 in 10.0 mi Calm Calm - N/A   Clear
8:55 AM 76.1 °F 66.4 °F 72% 30.03 in 10.0 mi West 3.5 mph - N/A   Clear
9:15 AM 77.0 °F 67.5 °F 72% 30.03 in 10.0 mi NW 4.6 mph - N/A   Clear
9:35 AM 78.3 °F 68.7 °F 72% 30.04 in 10.0 mi Calm Calm - N/A   Clear
9:55 AM 79.3 °F 69.6 °F 72% 30.04 in 10.0 mi Calm Calm - N/A   Clear
10:15 AM 79.3 °F 69.3 °F 71% 30.05 in 10.0 mi NW 4.6 mph - N/A   Scattered Clouds
10:35 AM 79.7 °F 69.8 °F 72% 30.05 in 10.0 mi NW 3.5 mph - N/A   Mostly Cloudy
10:55 AM 79.0 °F 69.4 °F 72% 30.06 in 10.0 mi West 3.5 mph - N/A   Overcast
11:15 AM 78.8 °F 69.3 °F 72% 30.06 in 10.0 mi NW 4.6 mph - N/A   Overcast
11:35 AM 79.2 °F 69.8 °F 73% 30.07 in 10.0 mi Calm Calm - N/A   Overcast
11:55 AM 79.7 °F 69.6 °F 71% 30.07 in 10.0 mi West 3.5 mph - N/A   Overcast
12:15 PM 77.5 °F 69.8 °F 77% 30.07 in 10.0 mi NNW 3.5 mph - N/A   Overcast
12:35 PM 78.1 °F 69.3 °F 74% 30.08 in 10.0 mi WNW 5.8 mph - N/A   Overcast
12:55 PM 79.0 °F 68.5 °F 70% 30.08 in 10.0 mi WNW 5.8 mph - N/A   Overcast
1:15 PM 78.4 °F 68.2 °F 71% 30.08 in 10.0 mi NW 4.6 mph - N/A   Overcast
1:35 PM 79.0 °F 67.8 °F 69% 30.08 in 10.0 mi WNW 4.6 mph - N/A   Mostly Cloudy
1:55 PM 77.2 °F 66.7 °F 70% 30.08 in 10.0 mi WNW 4.6 mph - N/A   Mostly Cloudy
2:15 PM 78.1 °F 66.2 °F 67% 30.08 in 10.0 mi West 3.5 mph - N/A   Mostly Cloudy
2:35 PM 78.8 °F 64.8 °F 62% 30.08 in 10.0 mi West 3.5 mph - N/A   Scattered Clouds
2:55 PM 79.7 °F 63.1 °F 57% 30.07 in 10.0 mi Calm Calm - N/A   Scattered Clouds
3:15 PM 79.9 °F 63.0 °F 56% 30.08 in 10.0 mi NNW 4.6 mph - N/A   Clear
3:35 PM 79.5 °F 61.9 °F 55% 30.08 in 10.0 mi NNW 3.5 mph - N/A   Clear
3:55 PM 79.0 °F 58.6 °F 50% 30.09 in 10.0 mi North 8.1 mph - N/A   Clear
4:15 PM 78.8 °F 59.2 °F 51% 30.09 in 10.0 mi NNW 5.8 mph - N/A   Clear
4:35 PM 78.1 °F 59.5 °F 53% 30.09 in 10.0 mi NNW 3.5 mph - N/A   Clear
4:55 PM 77.4 °F 59.5 °F 54% 30.10 in 10.0 mi NNW 3.5 mph - N/A   Clear
5:15 PM 76.1 °F 58.3 °F 54% 30.11 in 10.0 mi NNW 3.5 mph - N/A   Mostly Cloudy
5:35 PM 74.8 °F 57.2 °F 54% 30.11 in 10.0 mi NNW 4.6 mph - N/A   Overcast
5:55 PM 73.4 °F 57.9 °F 58% 30.12 in 10.0 mi NNW 4.6 mph - N/A   Overcast
6:15 PM 71.1 °F 57.2 °F 61% 30.13 in 10.0 mi NNW 8.1 mph - N/A   Scattered Clouds
6:35 PM 68.7 °F 57.2 °F 67% 30.14 in 10.0 mi NNW 3.5 mph - N/A   Clear
6:55 PM 67.3 °F 56.3 °F 68% 30.14 in 10.0 mi NNW 4.6 mph - N/A   Scattered Clouds
7:15 PM 66.0 °F 55.9 °F 70% 30.15 in 10.0 mi NNW 3.5 mph - N/A   Clear
7:35 PM 65.5 °F 55.0 °F 69% 30.16 in 10.0 mi NNW 3.5 mph - N/A   Clear
7:55 PM 64.4 °F 54.7 °F 71% 30.16 in 10.0 mi Calm Calm - N/A   Clear
8:15 PM 63.3 °F 54.7 °F 73% 30.16 in 10.0 mi Calm Calm - N/A   Clear
8:35 PM 62.2 °F 54.9 °F 77% 30.17 in 10.0 mi Calm Calm - N/A   Clear
8:55 PM 61.7 °F 54.9 °F 78% 30.17 in 10.0 mi Calm Calm - N/A   Clear
9:15 PM 61.3 °F 54.5 °F 78% 30.18 in 10.0 mi Calm Calm - N/A   Clear
9:35 PM 61.9 °F 54.0 °F 75% 30.19 in 10.0 mi NNW 3.5 mph - N/A   Clear
9:55 PM 61.0 °F 53.6 °F 77% 30.19 in 10.0 mi NNW 5.8 mph - N/A   Clear
10:15 PM 60.3 °F 53.1 °F 77% 30.19 in 10.0 mi NNW 4.6 mph - N/A   Clear
10:35 PM 59.7 °F 52.7 °F 78% 30.21 in 10.0 mi NNW 5.8 mph - N/A   Clear
10:55 PM 59.0 °F 52.0 °F 78% 30.21 in 10.0 mi NNW 3.5 mph - N/A   Clear
11:15 PM 58.5 °F 51.3 °F 77% 30.22 in 10.0 mi NNW 4.6 mph - N/A   Clear
11:35 PM 57.7 °F 51.3 °F 79% 30.22 in 10.0 mi North 4.6 mph - N/A   Clear
11:55 PM 57.4 °F 50.9 °F 79% 30.22 in 10.0 mi North 5.8 mph - N/A   Clear